TimeEST,TemperatureF,Dew PointF,Humidity,Sea Level PressureIn,VisibilityMPH,Wind Direction,Wind SpeedMPH,Gust SpeedMPH,PrecipitationIn,Events,Conditions,WindDirDegrees,DateUTC
5:53 AM,78.8,64.4,61,29.98,6.2,NE,8.1,-,N/A,,Mostly Cloudy,50,2012-11-01 10:53:00
6:00 AM,75.2,66.2,73,30.01,6.2,Calm,Calm,-,N/A,,Partly Cloudy,0,2012-11-01 11:00:00
6:53 AM,78.8,66.2,65,29.98,6.2,NE,8.1,-,N/A,,Mostly Cloudy,50,2012-11-01 11:53:00
7:00 AM,78,66,57,30.00,6,NE,8.1,,,,Scattered Clouds,50,2012-11-01 12:00:00
7:00 AM,77.0,64.4,65,30.01,6.2,NE,5.8,-,N/A,,Scattered Clouds,50,2012-11-01 12:00:00
7:50 AM,78.8,66.2,65,30.01,6.2,NE,6.9,-,N/A,,Mostly Cloudy,40,2012-11-01 12:50:00
7:53 AM,78.8,64.4,61,29.98,6.2,NE,8.1,-,N/A,,Mostly Cloudy,50,2012-11-01 12:53:00
8:50 AM,80.6,68.0,65,30.01,6.2,ENE,10.4,-,N/A,,Partly Cloudy,70,2012-11-01 13:50:00
9:00 AM,80.6,68.0,65,30.04,6.2,NE,11.5,-,N/A,,Scattered Clouds,40,2012-11-01 14:00:00
9:50 AM,82.4,68.0,62,30.04,6.2,ENE,10.4,-,N/A,,Partly Cloudy,70,2012-11-01 14:50:00
10:00 AM,82.4,68.0,62,30.04,6.2,ENE,10.4,-,N/A,,Partly Cloudy,70,2012-11-01 15:00:00
10:50 AM,84.2,69.8,62,30.04,6.2,ENE,12.7,-,N/A,,Partly Cloudy,60,2012-11-01 15:50:00
11:00 AM,82.4,68.0,62,30.04,6.2,NE,12.7,-,N/A,,Scattered Clouds,50,2012-11-01 16:00:00
11:55 AM,82.4,69.8,66,30.01,6.2,ENE,13.8,-,N/A,,Scattered Clouds,70,2012-11-01 16:55:00
12:00 PM,82.4,68.0,62,30.01,6.2,NE,12.7,-,N/A,,Scattered Clouds,50,2012-11-01 17:00:00
12:50 PM,82.4,69.8,66,29.98,6.2,ENE,15.0,-,N/A,,Partly Cloudy,60,2012-11-01 17:50:00
1:00 PM,83,70,57,29.99,6,ENE,15.0,,,,Scattered Clouds,60,2012-11-01 18:00:00
2:00 PM,82.4,69.8,66,29.95,6.2,ENE,17.3,-,N/A,,Scattered Clouds,70,2012-11-01 19:00:00
2:50 PM,82.4,69.8,66,29.95,6.2,ENE,17.3,-,N/A,,Scattered Clouds,70,2012-11-01 19:50:00
3:00 PM,82.4,68.0,62,29.95,6.2,ENE,15.0,-,N/A,,Partly Cloudy,60,2012-11-01 20:00:00
4:00 PM,80.6,68.0,65,29.95,6.2,ENE,13.8,-,N/A,,Scattered Clouds,60,2012-11-01 21:00:00
5:00 PM,80.6,68.0,65,29.95,6.2,ENE,12.7,-,N/A,,Scattered Clouds,60,2012-11-01 22:00:00
6:00 PM,78.8,68.0,69,29.98,6.2,ENE,12.7,-,N/A,,Partly Cloudy,60,2012-11-01 23:00:00
7:00 PM,78,67,61,29.99,6,ENE,13.8,,,,Scattered Clouds,60,2012-11-02 00:00:00
7:00 PM,78.8,68.0,69,29.98,6.2,ENE,13.8,-,N/A,,Partly Cloudy,60,2012-11-02 00:00:00
8:00 PM,78.8,66.2,65,30.01,6.2,ENE,13.8,-,N/A,,Partly Cloudy,60,2012-11-02 01:00:00
9:00 PM,78.8,66.2,65,30.01,6.2,ENE,12.7,-,N/A,,Partly Cloudy,60,2012-11-02 02:00:00
10:00 PM,78.8,68.0,69,30.04,6.2,NE,11.5,-,N/A,,Partly Cloudy,50,2012-11-02 03:00:00